Pontiac, IL

7:40 AM CST on February 11, 2016 (GMT -0600)
Pontiac Municipal

Weather History for KPNT - January, 2013

Change the Weather History Date:

Wednesday, January 9, 2013

  Actual Average Record
Temperature  
Mean Temperature 38 °F -  
Max Temperature 51 °F 27 °F 57 °F (1939)
Min Temperature 26 °F 13 °F -8 °F (1912)
Degree Days  
Heating Degree Days 26    
Moisture  
Dew Point 30 °F    
Average Humidity 73    
Maximum Humidity 93    
Minimum Humidity 33    
Precipitation  
Precipitation 0.00 in - - ()
Sea Level Pressure  
Sea Level Pressure 30.31 in    
Wind  
Wind Speed 12 mph (West)    
Max Wind Speed 26 mph    
Max Gust Speed 36 mph    
Visibility 10 miles    
Events      
Averages and records for this station are not official NWS values.
T = Trace of Precipitation, MM = Missing Value Source: NWS Daily Summary

Daily Weather History Graph

Daily Weather History Graph

Search for Another Location

Airport or City:

Trip Planner

Search our weather history database for the weather conditions in past years. The results will help you decide how hot, cold, wet, or windy it might be!

Date:

Astronomy

Jan. 09, 2013 Rise Set
Actual Time 7:18 AM CST 4:45 PM CST
Civil Twilight 6:48 AM CST 5:15 PM CST
Nautical Twilight 6:14 AM CST 5:49 PM CST
Astronomical Twilight 5:40 AM CST 6:22 PM CST
Moon 4:57 AM CST (1/9) 2:46 PM CST (1/9)
Length of Visible Light 10h 27m
Length of Day
9h 26m
Waning Crescent, 6% of the Moon is Illuminated
Jan 9
Waning Crescent
Jan 11
New
Jan 18
First Quarter
Jan 26
Full
Feb 3
Last Quarter

Hourly Weather History & Observations

Time (CST) Temp. Windchill Dew Point Humidity Pressure Visibility Wind Dir Wind Speed Gust Speed Precip Events Conditions
12:15 AM 39.2 °F 30.5 °F 33.8 °F 81% 30.06 in 10.0 mi SSW 16.1 mph - N/A   Scattered Clouds
12:35 AM 41.0 °F 32.5 °F 33.8 °F 76% 30.06 in 10.0 mi SSW 17.3 mph - N/A   Clear
12:55 AM 41.0 °F 33.1 °F 33.8 °F 76% 30.07 in 10.0 mi SSW 15.0 mph 19.6 mph N/A   Mostly Cloudy
1:15 AM 42.8 °F 35.4 °F 33.8 °F 70% 30.07 in 10.0 mi SSW 15.0 mph - N/A   Overcast
1:35 AM 42.8 °F 35.8 °F 33.8 °F 70% 30.08 in 10.0 mi SW 13.8 mph - N/A   Overcast
1:55 AM 42.8 °F 35.8 °F 33.8 °F 70% 30.09 in 10.0 mi SW 13.8 mph - N/A   Overcast
2:15 AM 42.8 °F 36.2 °F 33.8 °F 70% 30.09 in 10.0 mi SW 12.7 mph - N/A   Scattered Clouds
2:35 AM 41.0 °F 33.9 °F 33.8 °F 76% 30.11 in 10.0 mi SW 12.7 mph 18.4 mph N/A   Clear
2:55 AM 39.2 °F 31.6 °F 33.8 °F 81% 30.11 in 10.0 mi SW 12.7 mph - N/A   Clear
3:15 AM 37.4 °F 30.3 °F 33.8 °F 87% 30.12 in 10.0 mi WSW 10.4 mph - N/A   Clear
3:35 AM 37.4 °F 29.8 °F 33.8 °F 87% 30.13 in 10.0 mi WSW 11.5 mph - N/A   Clear
3:55 AM 35.6 °F 28.0 °F 32.0 °F 87% 30.13 in 10.0 mi WSW 10.4 mph - N/A   Clear
4:15 AM 37.4 °F 30.3 °F 32.0 °F 81% 30.14 in 10.0 mi WSW 10.4 mph - N/A   Clear
4:35 AM 35.6 °F 28.6 °F 32.0 °F 87% 30.14 in 10.0 mi WSW 9.2 mph - N/A   Clear
4:55 AM 35.6 °F 28.0 °F 32.0 °F 87% 30.15 in 10.0 mi SW 10.4 mph - N/A   Clear
5:15 AM 35.6 °F 28.6 °F 30.2 °F 81% 30.17 in 10.0 mi WSW 9.2 mph - N/A   Clear
5:35 AM 33.8 °F 25.8 °F 30.2 °F 87% 30.17 in 10.0 mi WSW 10.4 mph - N/A   Clear
5:55 AM 35.6 °F 28.0 °F 32.0 °F 87% 30.18 in 10.0 mi WSW 10.4 mph - N/A   Clear
6:15 AM 35.6 °F 28.0 °F 32.0 °F 87% 30.20 in 10.0 mi WSW 10.4 mph - N/A   Clear
6:35 AM 35.6 °F 27.5 °F 32.0 °F 87% 30.21 in 10.0 mi West 11.5 mph - N/A   Clear
6:55 AM 35.6 °F 27.1 °F 32.0 °F 87% 30.23 in 10.0 mi West 12.7 mph - N/A   Clear
7:15 AM 35.6 °F 27.5 °F 30.2 °F 81% 30.25 in 10.0 mi West 11.5 mph - N/A   Clear
7:35 AM 35.6 °F 28.0 °F 30.2 °F 81% 30.25 in 10.0 mi West 10.4 mph - N/A   Clear
7:55 AM 35.6 °F 28.0 °F 30.2 °F 81% 30.26 in 10.0 mi WSW 10.4 mph - N/A   Clear
8:15 AM 35.6 °F 28.0 °F 32.0 °F 87% 30.27 in 10.0 mi WSW 10.4 mph - N/A   Clear
8:35 AM 37.4 °F 30.3 °F 32.0 °F 81% 30.28 in 10.0 mi WSW 10.4 mph - N/A   Clear
8:55 AM 37.4 °F 30.8 °F 33.8 °F 87% 30.29 in 10.0 mi SW 9.2 mph - N/A   Clear
9:15 AM 39.2 °F 32.0 °F 33.8 °F 81% 30.30 in 10.0 mi WSW 11.5 mph - N/A   Clear
9:35 AM 41.0 °F 34.3 °F 33.8 °F 76% 30.30 in 10.0 mi WSW 11.5 mph - N/A   Clear
9:55 AM 42.8 °F 37.0 °F 33.8 °F 70% 30.31 in 10.0 mi WSW 10.4 mph - N/A   Clear
10:15 AM 42.8 °F 35.8 °F 33.8 °F 70% 30.32 in 10.0 mi West 13.8 mph - N/A   Clear
10:35 AM 44.6 °F 38.1 °F 33.8 °F 66% 30.33 in 10.0 mi WSW 13.8 mph - N/A   Clear
10:55 AM 44.6 °F 37.8 °F 35.6 °F 71% 30.32 in 10.0 mi West 15.0 mph - N/A   Clear
11:15 AM 46.4 °F 40.7 °F 35.6 °F 66% 30.33 in 10.0 mi West 12.7 mph - N/A   Clear
11:35 AM 46.4 °F 39.5 °F 35.6 °F 66% 30.33 in 10.0 mi West 17.3 mph - N/A   Clear
11:55 AM 46.4 °F 40.1 °F 35.6 °F 66% 30.33 in 10.0 mi West 15.0 mph - N/A   Clear
12:15 PM 48.2 °F - 35.6 °F 62% 30.33 in 10.0 mi West 15.0 mph 23.0 mph N/A   Clear
12:35 PM 48.2 °F - 35.6 °F 62% 30.33 in 10.0 mi West 16.1 mph - N/A   Clear
12:55 PM 50.0 °F - 33.8 °F 54% 30.32 in 10.0 mi WNW 18.4 mph 23.0 mph N/A   Clear
1:15 PM 51.8 °F - 32.0 °F 47% 30.33 in 10.0 mi West 18.4 mph 23.0 mph N/A   Clear
1:35 PM 51.8 °F - 30.2 °F 44% 30.33 in 10.0 mi WNW 17.3 mph - N/A   Clear
1:55 PM 51.8 °F - 26.6 °F 38% 30.33 in 10.0 mi NW 21.9 mph 29.9 mph N/A   Clear
2:15 PM 51.8 °F - 23.0 °F 33% 30.34 in 10.0 mi WNW 26.5 mph 35.7 mph N/A   Clear
2:35 PM 51.8 °F - 26.6 °F 38% 30.35 in 10.0 mi NW 18.4 mph 23.0 mph N/A   Clear
2:55 PM 51.8 °F - 26.6 °F 38% 30.37 in 10.0 mi NW 18.4 mph - N/A   Clear
3:15 PM 50.0 °F - 24.8 °F 37% 30.38 in 10.0 mi WNW 17.3 mph - N/A   Clear
3:35 PM 48.2 °F - 26.6 °F 43% 30.39 in 10.0 mi NW 17.3 mph 20.7 mph N/A   Clear
3:55 PM 48.2 °F - 26.6 °F 43% 30.40 in 10.0 mi NW 11.5 mph - N/A   Clear
4:15 PM 46.4 °F 41.5 °F 28.4 °F 50% 30.41 in 10.0 mi NW 10.4 mph - N/A   Clear
4:35 PM 44.6 °F 38.4 °F 26.6 °F 49% 30.41 in 10.0 mi NW 12.7 mph 17.3 mph N/A   Clear
4:55 PM 42.8 °F 38.6 °F 26.6 °F 53% 30.42 in 10.0 mi NW 6.9 mph - N/A   Clear
5:15 PM 39.2 °F 33.6 °F 26.6 °F 61% 30.43 in 10.0 mi WNW 8.1 mph - N/A   Clear
5:35 PM 39.2 °F 34.2 °F 26.6 °F 61% 30.43 in 10.0 mi NNW 6.9 mph - N/A   Clear
5:55 PM 39.2 °F 35.0 °F 26.6 °F 61% 30.44 in 10.0 mi NNW 5.8 mph - N/A   Clear
6:15 PM 39.2 °F 33.0 °F 26.6 °F 61% 30.44 in 10.0 mi North 9.2 mph - N/A   Clear
6:35 PM 37.4 °F - 26.6 °F 65% 30.46 in 10.0 mi Calm Calm - N/A   Clear
6:55 PM 33.8 °F - 26.6 °F 75% 30.47 in 10.0 mi Calm Calm - N/A   Clear
7:15 PM 33.8 °F - 26.6 °F 75% 30.47 in 10.0 mi Calm Calm - N/A   Clear
7:35 PM 35.6 °F - 26.6 °F 70% 30.48 in 10.0 mi Calm Calm - N/A   Clear
7:55 PM 32.0 °F - 26.6 °F 80% 30.48 in 10.0 mi Calm Calm - N/A   Clear
8:15 PM 30.2 °F - 26.6 °F 86% 30.48 in 10.0 mi Calm Calm - N/A   Clear
8:35 PM 30.2 °F 26.7 °F 26.6 °F 86% 30.48 in 10.0 mi SW 3.5 mph - N/A   Clear
8:55 PM 28.4 °F - 26.6 °F 93% 30.48 in 10.0 mi Calm Calm - N/A   Clear
9:15 PM 28.4 °F - 26.6 °F 93% 30.47 in 10.0 mi Calm Calm - N/A   Clear
9:35 PM 28.4 °F - 26.6 °F 93% 30.47 in 10.0 mi Calm Calm - N/A   Clear
9:55 PM 28.4 °F - 26.6 °F 93% 30.48 in 10.0 mi Calm Calm - N/A   Clear
10:15 PM 28.4 °F 24.6 °F 24.8 °F 86% 30.49 in 10.0 mi SW 3.5 mph - N/A   Clear
10:35 PM 28.4 °F - 26.6 °F 93% 30.49 in 10.0 mi Calm Calm - N/A   Clear
10:55 PM 28.4 °F - 26.6 °F 93% 30.49 in 10.0 mi Calm Calm - N/A   Clear
11:15 PM 28.4 °F 24.6 °F 24.8 °F 86% 30.51 in 10.0 mi South 3.5 mph - N/A   Clear
11:35 PM 26.6 °F - 24.8 °F 93% 30.50 in 10.0 mi Calm Calm - N/A   Clear
11:55 PM 26.6 °F - 24.8 °F 93% 30.50 in 10.0 mi Calm Calm - N/A   Clear